Lapse_Rate
7.4 7.6 7.7 7.7 7.7 7.4 7.6 8.3 8.7 8.5 8.0 8.3 8.1 8.0 8.1 7.7 7.7 7.8 7.5 7.8 7.7 7.3 7.2 7.1 6.8 6.5 6.4 6.5 6.7 6.7 6.7 6.3 6.5 6.5 6.6 6.6 6.8 6.7 6.8 6.6 6.8 6.8 6.6 6.4 6.3 6.5 6.4 6.5 6.4
7.4 7.6 7.8 7.6 7.7 7.6 8.5 8.9 8.4 8.0 7.8 7.9 7.9 8.0 7.9 7.9 7.7 7.8 7.6 7.7 7.7 7.3 7.1 6.9 6.6 6.4 6.4 6.4 6.5 6.4 6.4 6.4 6.6 6.6 6.7 6.4 6.7 6.7 7.0 6.8 6.8 6.9 6.6 6.5 6.4 6.5 6.4 6.3 6.2
7.4 7.6 7.8 7.4 7.8 8.3 8.5 8.6 8.2 7.8 7.5 7.7 7.8 8.0 7.9 7.8 7.4 7.4 7.2 7.3 7.5 7.3 7.1 6.9 6.6 6.4 6.3 6.2 6.3 6.3 6.3 6.6 6.6 6.9 6.6 6.5 6.5 6.6 6.9 7.0 7.1 6.8 6.8 6.6 6.5 6.3 6.1 6.1 6.0
7.6 7.8 7.8 8.0 8.5 8.4 8.4 8.5 8.1 7.7 7.5 7.6 7.7 7.8 7.8 7.8 7.7 7.2 7.4 7.1 7.1 7.3 6.9 6.7 6.4 6.3 6.0 5.8 5.9 6.2 6.1 6.4 6.4 6.6 6.4 6.3 6.4 6.5 7.3 7.2 7.0 6.8 6.6 6.4 6.3 6.2 6.0 5.9 5.9
7.9 8.1 8.1 8.5 8.2 8.4 8.4 8.5 8.1 8.0 7.4 7.7 7.6 7.4 7.6 7.5 7.5 7.3 7.1 6.5 6.6 6.6 6.7 6.3 6.1 5.8 5.9 5.4 5.6 5.7 5.8 6.2 6.3 6.5 6.2 6.3 6.3 6.7 7.3 7.2 7.0 6.8 6.6 6.6 6.3 5.9 5.8 6.0 6.0
8.1 8.2 8.3 8.3 8.2 8.5 8.6 8.5 8.1 7.8 7.9 7.7 7.4 7.2 7.4 7.6 7.4 7.5 7.0 6.3 6.4 6.2 6.3 6.0 6.0 5.9 5.8 5.0 5.2 5.4 6.0 6.0 6.2 6.0 6.1 6.2 6.5 7.4 7.2 7.0 6.8 6.6 6.3 6.2 5.9 5.9 6.0 5.9 5.8
8.1 8.2 8.6 8.3 8.3 8.6 8.7 8.6 8.2 8.1 7.9 7.8 7.1 7.3 7.4 7.4 7.2 7.0 6.9 6.7 6.3 6.2 6.1 6.0 5.4 5.6 5.3 4.6 4.6 5.7 5.7 5.7 6.0 6.0 6.2 6.5 7.1 7.4 7.2 7.0 6.8 6.4 6.3 6.0 6.1 5.8 5.7 5.7 5.6
8.3 8.2 8.5 8.3 8.5 8.9 8.7 8.5 8.6 8.4 8.1 7.7 7.2 7.0 7.2 7.3 7.1 6.9 6.7 6.7 6.2 6.0 6.1 5.9 5.4 5.3 4.7 3.9 4.9 5.2 5.6 5.5 5.8 6.3 6.6 7.6 7.2 7.1 7.0 6.7 6.6 6.5 6.0 5.9 5.8 5.6 5.7 5.8 5.5
8.4 8.3 8.3 8.4 8.7 8.9 8.6 8.2 8.5 8.2 7.9 7.5 7.4 7.2 7.2 6.9 6.6 6.2 6.2 6.0 5.6 5.6 5.3 5.0 5.2 4.7 3.9 3.8 4.5 4.9 5.4 5.5 6.0 7.2 7.4 7.6 7.1 6.9 6.9 6.9 6.4 6.2 6.1 6.0 5.7 5.7 5.7 5.7 5.6
8.5 8.3 8.5 8.6 8.7 8.7 8.6 8.3 8.3 8.0 7.5 7.3 7.3 7.3 7.1 6.9 6.2 6.2 6.0 5.7 5.8 5.7 5.6 5.3 5.5 5.3 4.5 3.9 4.7 5.3 5.1 5.8 6.3 7.1 7.3 7.0 6.9 6.8 6.6 6.4 6.4 6.2 6.1 6.0 5.8 6.0 5.9 5.9 5.7
8.4 8.4 8.5 8.5 8.9 8.9 8.7 8.4 8.3 7.9 7.2 7.0 6.7 6.9 6.9 7.0 6.5 6.0 5.5 5.1 5.3 5.0 5.5 5.4 5.0 4.6 4.7 4.2 5.5 5.4 6.1 6.1 7.5 7.1 7.2 7.1 7.0 6.9 6.8 6.6 6.1 6.0 6.0 6.0 6.1 6.1 5.8 5.7 5.9
8.4 8.8 8.6 9.0 9.0 9.1 8.5 8.4 8.2 7.8 7.3 7.1 7.0 7.1 7.1 7.1 6.8 5.9 5.8 4.9 5.2 5.3 5.1 5.0 4.9 4.7 4.8 4.8 5.3 5.8 6.1 6.7 7.0 7.0 6.8 6.6 6.9 6.7 6.4 6.3 6.3 6.3 6.2 6.1 6.0 5.9 5.8 6.0 5.8
8.9 8.9 9.1 8.9 9.0 8.8 8.5 8.2 7.8 7.5 7.1 6.7 7.1 6.9 7.3 7.2 7.1 6.7 6.3 5.7 5.3 4.9 5.1 5.4 5.4 5.2 5.6 6.6 6.6 6.2 6.7 7.0 7.1 6.8 6.5 6.6 6.6 6.5 6.4 6.3 6.1 6.1 6.0 5.8 5.6 5.7 5.8 5.7 5.5
8.9 9.2 9.3 9.0 8.9 8.5 8.2 7.9 7.8 7.5 6.9 6.8 6.9 6.6 7.2 7.1 7.2 7.1 6.5 7.2 6.6 6.3 6.0 5.9 6.0 6.4 6.7 7.5 7.7 7.5 7.2 7.0 6.7 6.7 6.6 6.5 6.4 6.3 6.3 6.2 6.1 6.0 5.7 5.5 5.5 5.5 5.6 5.5 5.6
9.0 8.9 9.0 8.7 8.5 8.6 8.2 7.9 8.0 7.6 7.5 7.0 6.6 7.0 7.2 7.6 7.4 7.4 7.4 7.3 7.2 6.7 6.6 6.9 7.1 7.5 7.4 7.1 7.4 6.9 6.6 6.6 6.4 6.3 6.2 6.2 6.2 6.2 6.1 6.0 5.9 5.6 5.4 5.4 5.4 5.6 5.6 5.5 5.5
8.9 8.8 8.7 8.7 8.5 8.3 8.1 8.1 8.2 8.3 8.2 7.9 8.2 7.7 7.9 7.7 7.8 7.3 7.3 7.4 6.9 6.9 6.9 7.3 7.4 7.4 7.2 6.9 6.8 6.7 6.5 6.5 6.6 6.3 6.3 6.1 6.0 6.3 6.0 5.8 5.8 5.7 5.7 5.6 5.6 5.6 5.5 5.4 5.4
8.9 8.9 8.8 8.9 8.5 8.3 8.4 8.3 8.8 8.7 8.3 8.1 8.1 8.1 8.1 8.0 7.9 7.2 7.1 7.0 7.0 7.0 7.1 7.2 7.2 7.2 7.2 7.0 6.9 6.7 6.6 6.6 6.3 6.3 6.2 6.2 6.1 6.1 6.0 6.1 5.9 6.0 5.6 5.5 5.4 5.4 5.3 5.4 5.6
8.8 8.7 8.5 8.6 8.7 8.7 8.7 8.6 8.7 8.6 8.5 8.3 8.2 8.1 7.9 8.0 7.9 7.6 7.4 7.2 7.2 7.2 7.2 7.2 7.1 7.0 7.0 6.9 6.8 6.8 6.6 6.7 6.6 6.4 6.4 6.3 6.1 6.0 6.0 6.0 5.9 5.8 5.6 5.5 5.4 5.3 5.3 5.5 5.8
8.5 8.8 8.9 8.9 8.3 8.9 9.1 8.8 8.6 8.6 8.4 8.6 8.6 8.4 8.0 7.8 7.5 7.3 7.4 7.4 7.4 7.4 7.2 7.1 7.0 7.1 7.1 7.0 6.8 6.7 6.7 6.6 6.6 6.5 6.4 6.3 6.1 6.1 6.0 6.0 6.0 5.7 5.6 5.5 5.3 5.4 5.8 6.2 6.4
8.4 8.6 8.7 8.8 8.6 8.8 8.5 8.7 8.4 8.5 8.6 8.6 8.7 8.7 8.4 8.0 8.2 7.9 7.8 7.8 7.8 7.6 7.6 7.5 7.4 7.3 7.3 7.2 7.0 6.9 6.7 6.8 6.6 6.6 6.5 6.1 6.0 6.0 6.0 6.0 6.0 5.8 5.8 5.7 5.9 6.2 6.3 6.4 6.6
8.6 8.5 8.7 8.8 8.7 8.7 8.6 8.7 8.7 8.4 8.3 8.3 8.4 8.4 8.4 8.4 8.3 8.2 8.2 8.2 8.1 8.0 7.8 7.7 7.6 7.6 7.5 7.4 7.3 7.0 7.0 6.8 6.7 6.5 6.0 5.9 5.8 6.0 6.0 6.1 6.1 6.1 6.1 6.1 6.2 6.2 6.5 6.5 6.6
8.4 8.4 8.4 8.6 8.4 8.4 8.4 8.2 8.7 8.7 8.5 8.4 8.5 8.6 8.7 8.5 8.5 8.2 8.2 8.4 8.3 8.1 7.8 7.6 7.5 7.4 7.4 7.1 6.9 6.9 6.7 6.6 6.4 6.4 6.1 6.2 6.3 6.3 6.2 6.2 6.2 6.2 6.3 6.3 6.4 6.5 6.4 6.6 6.5
8.1 8.2 8.1 8.2 8.3 8.2 8.4 8.0 9.0 8.8 8.8 8.7 8.7 8.8 8.8 8.6 8.4 8.6 8.5 8.4 8.2 8.0 7.9 7.6 7.3 7.2 7.0 6.9 6.8 6.7 6.7 6.6 6.6 6.4 6.5 6.6 6.5 6.4 6.2 6.3 6.4 6.5 6.6 6.6 6.7 6.4 6.8 6.5 6.3
7.7 7.9 8.0 8.1 8.0 7.3 8.2 7.8 8.5 8.9 8.8 8.7 8.5 8.4 8.5 8.5 8.4 8.4 8.4 8.3 8.3 8.2 8.0 7.8 7.6 7.3 7.0 7.1 6.8 6.7 6.6 6.6 6.3 6.4 6.6 6.4 6.5 6.3 6.2 6.4 6.6 6.5 6.3 6.3 6.3 6.1 6.3 6.5 5.8
7.7 8.0 7.6 7.0 6.8 6.8 8.2 7.8 8.5 8.7 8.6 8.5 8.4 8.5 8.4 8.4 8.4 8.3 8.3 8.4 8.3 8.1 8.0 7.8 7.7 7.6 7.2 7.0 7.0 6.4 6.5 6.6 6.6 6.5 6.5 6.5 6.4 6.2 6.6 6.5 6.2 6.5 6.3 6.2 6.4 6.0 5.7 5.5 6.0
7.9 7.9 7.8 7.4 6.2 7.0 7.9 7.6 8.5 8.6 8.6 8.7 8.8 8.4 8.3 8.3 8.3 8.2 8.1 8.0 8.0 8.0 7.9 7.5 7.6 7.3 7.1 7.0 6.8 6.8 6.9 6.6 6.5 6.4 6.4 6.8 6.8 6.7 7.1 6.1 5.6 6.1 6.0 5.9 6.2 5.5 5.7 5.5 5.9
8.0 8.1 8.0 7.7 7.0 6.5 7.9 8.2 8.3 8.6 8.5 8.6 8.5 8.5 8.3 8.3 8.3 8.0 7.9 7.7 7.6 7.6 7.5 7.4 7.3 7.0 6.8 6.8 6.7 6.7 6.6 6.6 6.4 6.3 6.6 6.8 6.8 6.8 6.2 6.1 5.8 5.6 5.6 5.8 5.8 5.7 5.5 5.5 5.7
8.2 8.2 8.1 7.9 7.1 6.9 7.1 7.7 8.5 8.6 8.6 8.8 8.7 8.7 8.4 8.1 8.1 7.9 7.9 7.7 7.6 7.4 7.3 7.0 6.8 6.9 6.8 6.5 6.4 6.5 6.6 6.6 6.4 6.4 6.4 6.2 6.1 6.2 5.9 5.8 5.8 5.8 6.1 5.6 5.8 5.7 5.6 5.5 5.1
8.4 8.2 8.2 8.3 8.1 6.5 5.8 7.7 8.6 8.7 8.6 8.5 8.5 8.5 8.4 8.1 8.0 8.0 8.0 7.9 7.9 7.6 7.3 7.1 7.0 7.0 6.8 6.8 6.7 6.7 6.6 6.6 6.4 6.2 6.1 6.3 6.0 6.1 6.2 5.9 5.9 5.9 5.8 5.7 6.0 5.9 5.7 5.4 5.6
8.2 8.1 8.2 8.2 7.7 7.9 7.5 7.4 8.5 8.8 8.6 8.5 8.5 8.6 8.5 8.4 8.3 8.2 8.2 8.1 8.0 7.9 7.5 7.3 7.2 7.1 7.0 6.9 6.8 6.5 6.4 6.2 6.3 6.2 6.3 6.4 6.0 6.0 6.2 6.2 6.0 5.9 6.0 6.1 6.1 5.5 5.4 5.4 5.5
Wind_Speed
5 5 3 4 4 5 4 6 3 4 2 1 0 2 3 3 1 2 3 3 12 15 21 23 26 26 27 28 28 27 28 27 28 27 25 25 26 26 26 25 27 26 25 27 28 27 26 24 23
4 2 4 2 5 2 5 3 4 5 1 0 4 1 5 4 2 3 2 6 12 15 20 21 24 26 27 28 27 26 27 26 26 25 25 26 26 25 27 26 27 27 27 29 27 29 27 25 23
2 4 4 4 3 5 4 4 4 1 2 2 3 6 3 4 1 1 2 11 14 14 20 22 25 25 27 27 26 25 24 25 25 24 24 25 26 24 25 26 27 28 29 30 28 27 27 26 25
2 4 4 4 3 5 5 4 3 1 4 9 4 5 2 4 4 3 6 10 12 12 18 23 25 25 27 27 26 24 20 22 22 23 23 23 24 23 23 25 28 29 29 30 30 28 27 25 24
4 3 3 1 3 4 4 3 3 4 7 2 2 1 2 3 6 8 8 5 10 10 18 21 25 22 26 26 25 25 21 18 19 20 22 22 22 21 21 23 26 27 28 27 27 27 25 22 21
4 3 3 1 5 4 4 3 1 3 3 4 6 3 2 3 6 10 12 12 7 4 12 21 29 25 23 26 22 23 21 18 19 18 19 19 18 20 20 20 21 24 25 25 24 25 24 24 22
6 4 4 3 4 5 4 4 0 1 3 4 2 5 1 5 7 12 12 15 13 7 12 11 26 21 21 22 22 23 21 18 19 18 16 16 18 18 18 17 17 18 21 23 24 23 23 23 22
5 4 2 2 3 5 1 2 2 3 3 3 2 6 4 3 11 12 12 15 17 11 16 20 20 12 16 16 23 21 21 16 17 18 16 18 17 18 17 18 16 19 20 21 23 23 24 24 22
3 4 1 4 3 5 2 2 2 3 5 4 5 2 9 11 14 14 13 14 15 14 15 13 13 14 12 13 12 16 17 18 18 17 16 17 16 16 17 17 18 19 21 23 23 23 24 24 22
4 3 7 6 5 5 3 4 5 3 4 3 6 12 12 12 11 13 11 11 16 17 11 8 10 13 10 6 9 11 13 15 16 16 14 13 12 12 15 17 17 19 21 22 22 21 20 23 21
5 5 6 6 7 3 6 2 2 7 2 7 14 16 13 12 11 11 10 10 13 14 11 8 8 12 10 6 9 9 13 14 14 14 13 12 11 13 13 14 13 17 20 18 20 19 20 18 17
2 8 4 6 4 4 6 5 3 2 3 8 13 12 12 11 10 11 11 10 9 13 13 11 14 13 10 7 7 9 9 10 11 12 13 13 10 10 10 10 13 17 17 17 18 17 18 21 21
3 5 1 2 7 5 7 4 5 3 5 13 14 12 11 10 10 10 12 11 11 11 11 9 10 8 7 8 8 4 8 10 13 14 14 13 12 8 11 10 14 15 17 17 15 16 16 17 15
2 3 4 4 4 5 5 3 2 2 10 13 10 11 11 12 12 12 14 14 14 13 14 13 12 11 11 6 10 10 10 13 14 14 15 12 14 13 11 10 11 13 15 15 16 12 13 11 11
2 2 4 0 3 3 7 1 2 7 14 15 11 9 12 11 9 14 16 15 16 11 11 9 7 8 7 6 8 11 12 13 10 11 13 14 15 13 13 12 9 13 17 17 16 13 12 9 9
3 3 0 4 2 1 2 3 6 12 12 16 12 13 10 10 14 10 12 12 13 10 12 7 7 7 7 6 9 10 12 11 10 10 8 9 11 15 15 12 10 17 16 15 11 8 4 4 4
5 1 1 4 5 2 2 3 5 10 8 11 12 12 8 10 9 8 8 8 8 7 7 8 7 8 8 7 8 10 12 9 10 8 10 12 14 18 17 11 12 17 13 11 7 2 2 2 2
3 2 3 5 3 5 2 6 6 8 7 12 12 11 9 10 16 11 11 10 7 8 7 6 5 6 7 6 6 4 5 5 8 9 11 14 16 18 16 13 14 15 8 5 4 3 4 2 2
2 3 5 3 5 4 6 6 8 6 5 8 10 10 11 13 12 9 9 10 9 8 8 8 8 7 7 3 3 3 3 3 2 7 11 14 16 17 15 12 12 11 4 5 6 3 3 1 1
2 3 4 4 3 3 4 4 4 9 10 10 14 13 14 10 8 11 9 9 11 12 11 9 11 10 8 6 3 3 3 2 2 4 10 14 15 16 14 13 9 10 4 5 4 3 2 1 2
2 3 2 2 5 0 1 5 5 5 6 7 9 14 13 16 14 13 13 13 10 11 12 12 13 13 10 8 6 3 5 4 1 2 3 6 14 15 14 15 13 10 6 4 3 3 3 3 2
2 3 3 4 5 3 2 4 4 4 8 9 12 11 13 13 12 12 13 14 15 15 10 9 8 9 8 10 9 7 5 4 4 4 3 4 12 13 14 14 13 10 9 5 4 4 2 2 0
6 1 1 1 3 1 1 3 7 2 6 12 14 15 14 14 15 15 17 19 10 9 9 8 8 8 7 10 10 7 5 2 2 2 6 4 5 10 13 14 13 11 11 8 7 5 5 2 1
2 3 5 4 3 1 3 5 5 4 7 5 9 11 14 13 15 15 12 9 9 7 8 9 10 10 8 10 7 10 9 7 4 4 5 4 4 5 11 16 17 16 12 8 7 7 4 3 3
2 5 3 4 3 4 2 2 9 5 6 7 10 14 17 14 14 13 12 12 11 12 11 9 11 12 12 11 11 12 11 9 9 8 7 7 4 3 6 10 8 8 12 12 8 5 5 4 3
3 6 5 2 2 3 1 4 5 3 4 8 9 7 8 9 11 12 16 14 13 12 13 13 12 11 12 12 13 10 9 7 6 9 8 7 5 6 11 12 10 11 15 12 9 6 3 5 3
3 2 4 6 3 2 3 6 10 4 3 6 6 4 8 9 10 14 10 11 10 12 15 15 13 12 11 14 11 8 7 8 8 6 7 6 9 8 14 15 10 15 14 10 9 3 4 4 4
3 6 3 3 2 3 4 4 5 7 4 3 4 3 3 6 6 6 7 8 8 9 10 11 13 14 14 11 8 7 8 8 9 9 11 13 13 15 12 8 10 8 7 4 4 3 2 5 4
2 1 4 5 4 4 1 5 7 6 4 5 5 4 5 7 8 8 7 7 9 8 10 12 12 12 7 7 6 7 8 8 9 10 10 9 10 8 6 7 7 6 5 5 4 4 5 6 6
4 7 6 4 4 1 3 6 4 7 6 6 6 4 4 5 6 5 4 6 9 11 11 13 8 9 7 5 6 6 6 7 6 4 6 7 8 9 8 7 5 5 5 4 4 7 7 7 6
Wind_Direction
119 103 88 42 62 68 278 260 287 272 242 345 6 34 103 66 131 226 339 228 137 140 139 135 134 131 126 123 121 121 120 120 120 119 120 118 114 110 107 105 104 100 94 92 87 93 109 107 99
126 87 54 78 90 77 263 271 277 286 2 343 104 52 40 64 40 91 60 144 136 134 134 133 131 128 124 122 121 121 121 123 119 122 122 120 116 116 111 106 103 98 94 92 92 94 99 101 93
119 36 85 93 119 197 223 228 330 270 161 37 66 56 31 352 43 67 192 149 137 134 134 136 131 128 124 122 121 122 124 126 125 124 123 121 117 115 110 105 104 100 94 92 94 99 99 95 92
98 9 38 99 225 253 216 304 305 91 26 28 20 60 80 332 299 168 136 121 125 130 135 137 127 129 126 124 122 119 124 121 126 126 125 121 119 115 108 103 102 102 100 94 90 96 98 95 93
35 60 69 62 251 252 238 246 238 143 135 165 90 104 52 6 91 81 71 82 116 134 138 131 126 128 123 121 122 123 117 127 124 126 126 124 120 113 106 105 105 107 106 102 97 95 92 98 99
37 96 65 261 259 271 250 190 255 339 132 188 108 80 321 189 69 77 62 51 42 82 142 142 130 121 123 122 124 114 124 131 128 125 124 119 116 115 110 107 107 108 105 102 102 100 98 93 96
126 91 197 206 265 292 233 116 97 200 82 45 86 107 252 99 88 79 76 71 45 71 81 78 99 119 116 112 111 120 127 131 126 122 120 118 119 116 112 109 105 105 108 106 97 92 90 89 87
114 94 123 269 258 284 332 107 124 95 137 83 116 165 179 142 107 96 85 87 80 71 86 97 104 76 90 104 121 134 129 125 122 120 127 127 119 116 115 111 103 95 97 102 93 91 89 85 81
121 63 222 239 200 253 131 100 346 51 75 42 339 74 114 127 111 99 100 102 103 96 95 91 83 106 89 109 124 117 123 135 123 124 135 130 130 124 120 115 109 106 102 96 94 92 90 87 76
86 130 227 219 206 232 119 170 180 121 99 67 90 107 120 126 115 107 121 116 121 121 125 120 135 99 75 60 104 129 127 121 127 141 148 136 134 125 116 113 115 107 100 96 95 92 86 82 80
164 192 228 256 237 95 138 193 177 121 218 185 167 151 145 129 123 121 114 117 126 130 123 119 116 102 136 150 153 125 123 129 148 157 151 146 136 126 126 116 107 111 107 100 97 88 84 84 81
218 236 193 275 117 126 166 120 82 212 262 143 148 143 144 146 142 141 133 123 128 133 129 137 139 149 209 152 161 130 133 150 160 168 163 148 138 134 125 123 125 120 116 105 99 95 86 78 77
188 270 185 125 137 121 128 121 133 344 109 118 140 139 156 155 159 149 144 152 148 157 161 159 163 202 198 152 143 153 157 170 178 185 182 169 149 149 137 131 130 122 122 117 103 93 85 83 80
179 352 36 22 147 149 123 135 126 253 111 121 145 157 171 177 157 146 157 166 173 168 178 189 189 189 175 177 158 163 181 183 194 196 198 190 172 161 148 141 125 121 123 112 104 100 96 93 87
244 31 20 202 193 232 126 80 200 136 144 142 162 188 189 179 164 169 166 178 179 189 196 199 186 169 161 172 153 164 189 187 194 203 199 193 185 165 148 135 130 127 125 117 108 99 98 91 79
85 37 6 252 126 327 162 230 175 166 159 147 170 197 184 188 184 174 166 182 186 190 199 182 185 176 166 165 169 171 185 181 178 174 163 165 168 165 139 132 136 140 132 129 111 103 85 83 76
21 307 281 304 162 144 226 268 196 182 152 152 172 192 186 191 196 184 174 179 192 188 179 179 175 176 169 168 166 171 178 167 175 169 163 162 156 154 149 143 148 146 142 124 123 90 121 96 86
169 280 304 247 282 196 152 270 194 180 165 167 177 187 191 192 214 197 177 172 185 187 190 177 169 170 154 138 137 127 122 138 178 185 170 162 162 161 154 147 144 147 128 113 119 119 51 99 154
192 213 217 274 267 226 238 214 197 186 178 166 188 193 198 208 208 208 190 170 174 189 187 179 164 171 151 145 138 142 164 148 183 197 164 166 169 166 156 143 143 151 137 152 131 101 123 95 94
231 194 240 267 281 127 340 265 187 174 213 193 191 196 205 207 185 196 198 185 184 190 189 173 181 174 176 167 144 144 147 154 176 169 174 180 170 167 155 148 150 156 134 118 135 149 137 118 166
271 202 235 211 348 94 351 306 191 213 188 186 210 211 205 199 193 194 193 200 196 194 193 190 187 182 179 161 135 91 92 74 106 185 180 184 174 165 162 166 155 145 122 141 155 127 128 155 220
290 217 290 14 49 268 83 285 277 228 213 209 209 202 205 207 205 197 192 196 200 203 193 192 189 183 175 165 174 166 177 159 201 190 148 159 175 169 172 156 148 141 142 122 115 121 123 99 125
223 180 208 161 154 52 302 100 274 126 243 233 223 210 209 207 200 196 200 204 198 190 183 180 172 178 176 184 188 174 151 165 119 129 149 130 134 155 153 149 140 132 125 123 115 96 74 38 135
205 149 55 48 88 101 238 140 282 212 216 243 221 219 210 202 207 209 202 181 186 166 167 172 172 178 182 187 184 185 184 175 161 169 158 144 143 145 150 148 143 137 124 117 118 114 143 193 185
109 65 347 355 16 220 33 57 238 290 282 247 222 212 214 203 196 198 183 184 178 180 176 173 179 190 195 190 202 206 199 184 183 180 170 163 154 143 145 137 123 109 106 117 143 157 182 188 177
169 138 154 253 195 266 316 232 257 211 292 298 251 223 195 196 198 198 196 190 184 179 180 185 192 199 194 204 217 214 189 187 198 188 176 164 150 136 132 114 128 138 153 149 162 191 167 160 162
164 139 167 104 12 56 256 293 306 349 317 347 5 151 203 210 195 200 187 186 174 178 187 188 196 204 201 209 211 195 184 184 184 182 147 142 135 142 146 150 163 163 161 185 200 159 172 174 205
144 158 81 23 171 256 298 288 243 319 330 301 315 299 195 230 231 208 178 173 177 185 185 191 202 205 210 208 201 188 185 185 171 162 162 163 166 164 161 152 160 151 206 202 144 169 183 206 221
112 155 70 119 138 179 233 261 215 241 271 323 330 265 217 206 218 200 190 176 181 173 182 197 201 204 188 181 182 172 183 179 176 182 176 174 147 139 138 155 157 177 195 153 162 176 218 214 221
181 194 154 136 209 157 168 270 257 248 266 259 283 265 253 226 229 238 202 173 183 192 192 196 186 196 198 164 151 161 157 166 163 149 126 130 141 140 141 168 178 169 157 180 174 220 217 216 219